Regional Weather Roundup
Issued by NWS Sioux Falls, SD

Home | Current Version | Previous Version | Text Only | Print | Product List | Glossary On
Versions: 1 2 3 4 5 6 7 8 9 10 11 12 13 14 15 16 17 18 19 20 21 22 23 24 25 26 27 28 29 30 31 32 33 34 35 36 37 38 39 40 41 42 43 44 45 46 47 48 49 50
000
ASUS43 KFSD 301210
RWRFSD

WEATHER ROUNDUP FOR SE SOUTH DAKOTA/SW MINNESOTA/NW IOWA
NATIONAL WEATHER SERVICE SIOUX FALLS SD
700 AM CDT TUE AUG 30 2016

NOTE: "FAIR" INDICATES FEW OR NO CLOUDS BELOW 12,000 FEET WITH NO
SIGNIFICANT WEATHER AND OR OBSTRUCTIONS TO VISIBILITY.


SDZ038>040-050-052>070-301300-
SOUTHEAST SOUTH DAKOTA

CITY           SKY/WX    TMP DP  RH WIND       PRES   REMARKS
BROOKINGS      CLOUDY    68  66  93 VRB5      30.22
CHAMBERLAIN    MOCLDY    67  67  99 E6        30.19R
6HR MIN TEMP:  67; 6HR MAX TEMP:  72;

HURON          PTCLDY    67  64  90 E7        30.19R
6HR MIN TEMP:  67; 6HR MAX TEMP:  71;

MADISON        CLOUDY    64  64 100 E6        30.22S
MITCHELL       PTCLDY    66  65  96 SE5       30.19S
6HR MIN TEMP:  66; 6HR MAX TEMP:  74;

SIOUX FALLS    MOCLDY    69  66  90 NE3       30.20R
6HR MIN TEMP:  67; 6HR MAX TEMP:  73;

WINNER         FAIR      67  63  87 S6        30.19R
YANKTON        FAIR      66  63  88 NE5       30.19S
$$

MNZ071-072-080-081-089-090-097-098-301300-
SOUTHWEST MINNESOTA

CITY           SKY/WX    TMP DP  RH WIND       PRES   REMARKS
FAIRMONT       FAIR      66  64  93 S6        30.15F
JACKSON        FAIR      64  63  94 SW3       30.19F
LUVERNE        FAIR      68  63  83 NE3       30.21S
MARSHALL       MOCLDY    67  65  93 NW6       30.21R
6HR MIN TEMP:  67; 6HR MAX TEMP:  74; 6HR PCP:  0.15;

MONTEVIDEO     MOCLDY    64  64 100 CALM      30.22R
REDWOOD FALLS  FAIR      66  64  93 NW6       30.19R
TRACY          FAIR      67  65  94 SW8       30.21R
WINDOM         FAIR      64  63  94 W3        30.20R
WORTHINGTON    FAIR      65  63  93 E5        30.22F
$$

IAZ001>003-012>014-020>022-031-032-NEZ013-014-SDZ071-301300-
NORTHWEST IOWA

CITY           SKY/WX    TMP DP  RH WIND       PRES   REMARKS
CHEROKEE       CLOUDY    67  67 100 S8        30.22R
DENISON        CLOUDY    66  66 100 CALM      30.19R FOG
ESTHERVILLE    FAIR      65  65 100 E3        30.17F
LE MARS        CLOUDY    68  66  94 CALM      30.21S
ORANGE CITY    FAIR      68  66  94 E5        30.21R
SHELDON        MOCLDY    68  68 100 E9        30.19S
SIOUX CITY     MOCLDY    69  66  90 E5        30.19R
6HR MIN TEMP:  68; 6HR MAX TEMP:  70; 6HR PCP: TRACE;

SPENCER        FAIR      66  63  90 NE5       30.19F
6HR MIN TEMP:  63; 6HR MAX TEMP:  69; 6HR PCP:  0.29;

STORM LAKE     LGT RAIN  66  66 100 W5        30.22S
$$

ABBREVIATIONS USED IN REMARKS
   TC - TEMPERATURE IN CELSIUS
  WCI - WIND CHILL INDEX
   HX - HEAT INDEX
  VSB - VISIBILITY





USA.gov is the U.S. government's official web portal to all federal, state and local government web resources and services.